Temp
-16 -16 -15 -15 -14 -14 -14 -13 -13 -13 -13 -13 -13 -13 -13 -14 -13 -13 -13 -13 -13 -12 -12 -13 -13 -12 -11 -11 -10 -10 -10 -10 -10 -10 -9 -9 -9 -9 -9 -9 -8 -8 -8 -7 -7
-17 -16 -16 -16 -16 -15 -15 -14 -14 -13 -13 -13 -14 -14 -14 -14 -13 -13 -14 -14 -13 -13 -13 -12 -12 -12 -12 -11 -10 -10 -10 -10 -10 -10 -10 -9 -9 -9 -9 -9 -9 -8 -8 -8 -7
-18 -18 -17 -17 -17 -16 -16 -15 -15 -14 -13 -14 -14 -14 -14 -14 -15 -13 -13 -14 -13 -13 -13 -12 -12 -12 -12 -12 -12 -10 -10 -10 -10 -10 -10 -9 -9 -9 -9 -9 -9 -8 -8 -8 -7
-19 -19 -18 -18 -18 -17 -17 -17 -16 -15 -15 -15 -15 -15 -15 -15 -15 -12 -14 -16 -12 -13 -13 -13 -12 -12 -13 -12 -13 -12 -11 -10 -10 -10 -10 -10 -9 -9 -9 -9 -9 -9 -8 -8 -8
-20 -20 -19 -19 -19 -19 -18 -18 -17 -17 -17 -16 -16 -16 -16 -15 -14 -13 -15 -15 -14 -13 -13 -13 -13 -13 -13 -13 -12 -13 -12 -11 -10 -10 -10 -10 -9 -9 -9 -9 -9 -9 -9 -9 -8
-20 -20 -20 -20 -20 -19 -19 -19 -18 -18 -18 -17 -17 -17 -16 -15 -14 -14 -15 -15 -14 -14 -14 -13 -14 -14 -13 -13 -12 -13 -13 -11 -11 -11 -10 -9 -9 -9 -9 -9 -9 -9 -9 -9 -8
-21 -20 -20 -20 -20 -20 -20 -19 -19 -19 -18 -18 -18 -17 -16 -15 -15 -15 -15 -16 -15 -15 -15 -14 -14 -15 -13 -13 -13 -12 -13 -11 -11 -10 -10 -11 -9 -8 -10 -9 -9 -9 -9 -9 -9
-21 -21 -20 -20 -20 -20 -20 -20 -19 -19 -19 -19 -19 -18 -17 -17 -17 -16 -15 -16 -16 -16 -15 -15 -14 -15 -14 -13 -13 -12 -12 -11 -11 -11 -10 -10 -9 -10 -10 -9 -9 -9 -9 -9 -9
-21 -21 -21 -21 -21 -21 -21 -20 -20 -20 -20 -19 -19 -19 -17 -16 -18 -17 -16 -16 -16 -16 -15 -15 -14 -14 -14 -13 -13 -12 -11 -11 -11 -11 -11 -10 -10 -11 -10 -10 -9 -9 -9 -9 -9
-21 -21 -21 -22 -21 -21 -21 -21 -21 -21 -21 -20 -20 -20 -17 -16 -17 -17 -16 -17 -16 -16 -15 -15 -14 -15 -14 -13 -12 -11 -11 -11 -11 -12 -11 -10 -10 -10 -10 -10 -10 -9 -9 -9 -9
-21 -22 -22 -22 -22 -22 -22 -22 -22 -21 -20 -20 -19 -19 -17 -17 -18 -18 -16 -17 -17 -16 -15 -15 -15 -15 -14 -14 -13 -13 -12 -11 -12 -12 -11 -11 -10 -10 -10 -10 -9 -9 -9 -9 -9
-22 -21 -22 -22 -22 -22 -22 -21 -21 -21 -20 -20 -19 -19 -19 -19 -18 -18 -16 -17 -16 -17 -16 -16 -17 -15 -15 -15 -15 -14 -13 -12 -13 -12 -11 -11 -10 -10 -10 -9 -10 -10 -9 -9 -9
-22 -22 -22 -22 -22 -22 -22 -21 -22 -22 -22 -21 -21 -20 -19 -19 -18 -18 -17 -16 -16 -17 -17 -18 -15 -15 -15 -14 -14 -14 -13 -13 -13 -13 -11 -11 -10 -10 -10 -9 -10 -9 -9 -9 -9
-22 -22 -22 -22 -23 -22 -22 -22 -23 -22 -23 -22 -21 -21 -20 -19 -18 -18 -18 -17 -17 -16 -16 -16 -16 -16 -16 -15 -14 -14 -14 -14 -14 -13 -12 -11 -9 -10 -10 -9 -9 -9 -10 -10 -10
-21 -22 -22 -22 -22 -22 -22 -23 -23 -23 -23 -22 -22 -21 -20 -20 -19 -18 -18 -18 -17 -16 -17 -16 -15 -15 -16 -14 -14 -14 -14 -14 -14 -14 -12 -12 -10 -9 -10 -9 -9 -10 -10 -10 -10
-22 -22 -22 -22 -22 -23 -23 -24 -24 -25 -24 -23 -22 -21 -21 -20 -19 -19 -19 -18 -17 -18 -18 -17 -15 -17 -16 -16 -16 -16 -15 -15 -15 -15 -14 -12 -11 -7 -9 -10 -10 -10 -9 -10 -10
-22 -22 -23 -22 -22 -23 -24 -24 -25 -25 -23 -22 -21 -20 -20 -20 -19 -20 -19 -18 -17 -17 -17 -16 -16 -17 -17 -16 -16 -16 -16 -15 -16 -16 -12 -12 -11 -6 -9 -10 -10 -10 -10 -10 -10
-23 -22 -23 -22 -23 -24 -24 -25 -24 -22 -23 -22 -21 -21 -20 -20 -20 -20 -20 -19 -18 -17 -16 -17 -18 -17 -16 -15 -15 -15 -15 -15 -15 -15 -11 -12 -10 -7 -8 -10 -10 -10 -10 -10 -10
-23 -22 -23 -23 -23 -24 -24 -24 -23 -22 -22 -22 -21 -21 -21 -20 -20 -20 -20 -19 -18 -18 -17 -17 -16 -16 -15 -15 -16 -16 -16 -16 -16 -15 -14 -13 -10 -9 -9 -10 -11 -10 -10 -10 -10
-23 -23 -23 -23 -24 -24 -24 -23 -23 -23 -23 -22 -22 -21 -21 -20 -20 -20 -20 -18 -18 -18 -17 -17 -16 -15 -15 -16 -16 -16 -16 -17 -17 -15 -14 -12 -10 -9 -9 -10 -11 -10 -10 -10 -10
-23 -23 -23 -24 -24 -25 -23 -23 -23 -23 -23 -22 -22 -21 -21 -21 -20 -20 -19 -18 -18 -18 -17 -17 -17 -15 -16 -16 -15 -16 -16 -16 -16 -16 -15 -12 -11 -10 -10 -10 -11 -11 -11 -10 -10
-23 -23 -24 -24 -25 -24 -23 -23 -23 -23 -23 -22 -22 -22 -22 -22 -22 -21 -19 -19 -18 -19 -19 -17 -18 -16 -15 -15 -15 -16 -16 -17 -16 -15 -13 -12 -10 -10 -10 -11 -11 -10 -11 -11 -10
-23 -23 -24 -24 -24 -23 -23 -23 -23 -23 -23 -23 -23 -23 -24 -23 -22 -20 -20 -19 -20 -21 -19 -18 -19 -18 -18 -18 -17 -17 -16 -16 -16 -16 -16 -15 -11 -11 -11 -11 -11 -11 -11 -11 -11
-23 -24 -24 -24 -24 -23 -23 -23 -23 -23 -23 -23 -23 -24 -23 -23 -22 -21 -20 -19 -20 -20 -20 -21 -20 -19 -17 -16 -16 -15 -15 -15 -16 -16 -14 -14 -11 -11 -11 -11 -11 -11 -11 -11 -11
-23 -24 -23 -23 -23 -23 -23 -24 -23 -23 -24 -24 -23 -23 -23 -22 -22 -22 -21 -21 -21 -21 -21 -21 -20 -19 -17 -17 -17 -16 -16 -16 -16 -15 -16 -13 -12 -11 -12 -12 -12 -12 -12 -11 -11
-24 -23 -23 -23 -23 -23 -23 -23 -24 -25 -25 -24 -24 -24 -24 -23 -22 -22 -22 -22 -21 -21 -21 -21 -21 -20 -18 -16 -19 -18 -17 -17 -17 -16 -17 -15 -14 -13 -12 -13 -13 -13 -12 -12 -12
-24 -24 -24 -23 -23 -24 -24 -24 -25 -26 -25 -25 -25 -25 -24 -23 -24 -23 -23 -22 -21 -21 -21 -21 -21 -20 -18 -17 -18 -19 -18 -16 -14 -14 -15 -15 -13 -12 -14 -13 -13 -14 -13 -12 -12
Height
5642 5649 5656 5664 5672 5681 5691 5699 5708 5716 5722 5730 5736 5743 5751 5756 5761 5766 5775 5783 5786 5792 5798 5802 5805 5810 5815 5820 5824 5828 5831 5834 5839 5844 5848 5851 5856 5858 5861 5863 5865 5866 5866 5867 5867
5625 5633 5640 5647 5655 5664 5673 5683 5692 5700 5708 5716 5723 5730 5739 5746 5752 5753 5763 5770 5776 5782 5789 5794 5799 5802 5807 5814 5817 5822 5826 5829 5833 5837 5842 5845 5851 5854 5858 5859 5861 5864 5865 5864 5866
5609 5617 5624 5632 5641 5649 5658 5667 5676 5685 5693 5701 5710 5718 5726 5733 5739 5744 5746 5761 5768 5772 5779 5786 5791 5797 5802 5807 5811 5816 5821 5823 5828 5832 5836 5840 5846 5849 5853 5855 5856 5862 5861 5862 5863
5594 5602 5609 5618 5627 5635 5643 5652 5661 5670 5678 5686 5695 5704 5712 5719 5723 5741 5742 5753 5761 5766 5772 5778 5784 5790 5795 5799 5805 5808 5813 5818 5822 5825 5829 5833 5840 5844 5848 5849 5854 5857 5858 5860 5861
5581 5589 5596 5605 5612 5621 5630 5638 5647 5656 5664 5671 5681 5689 5696 5705 5719 5728 5736 5744 5750 5756 5764 5766 5774 5782 5788 5792 5798 5802 5806 5811 5814 5819 5823 5827 5833 5838 5843 5844 5849 5852 5854 5857 5858
5569 5577 5584 5592 5600 5608 5617 5626 5634 5641 5650 5657 5666 5674 5682 5692 5712 5718 5727 5735 5739 5746 5757 5761 5766 5771 5777 5784 5789 5798 5800 5805 5810 5815 5818 5821 5826 5832 5838 5840 5843 5846 5849 5853 5854
5557 5565 5572 5580 5587 5596 5604 5613 5622 5630 5637 5644 5651 5659 5669 5687 5697 5708 5718 5728 5732 5739 5747 5755 5759 5763 5770 5777 5783 5790 5795 5799 5805 5809 5812 5816 5818 5826 5833 5832 5835 5840 5844 5848 5851
5541 5551 5560 5568 5576 5585 5593 5601 5610 5618 5625 5631 5636 5644 5657 5673 5683 5698 5713 5720 5723 5734 5743 5748 5751 5754 5760 5769 5776 5781 5789 5794 5801 5804 5807 5809 5817 5825 5824 5826 5831 5835 5839 5843 5846
5522 5537 5547 5555 5565 5574 5582 5591 5599 5606 5611 5616 5622 5632 5645 5662 5675 5691 5702 5715 5716 5727 5735 5740 5741 5744 5751 5759 5767 5775 5784 5790 5797 5799 5801 5803 5813 5817 5818 5820 5826 5829 5834 5838 5841
5515 5526 5535 5544 5553 5562 5572 5579 5585 5591 5594 5602 5610 5620 5638 5661 5668 5679 5691 5701 5709 5720 5723 5725 5730 5734 5741 5748 5763 5774 5778 5784 5792 5793 5794 5797 5806 5809 5810 5814 5820 5822 5826 5831 5836
5503 5512 5523 5533 5542 5548 5557 5560 5569 5577 5589 5603 5616 5622 5636 5647 5651 5664 5677 5688 5697 5705 5712 5715 5718 5724 5738 5751 5756 5762 5767 5775 5784 5784 5784 5789 5796 5800 5802 5805 5811 5816 5822 5827 5831
5487 5500 5510 5522 5531 5538 5545 5561 5574 5586 5589 5594 5602 5609 5621 5633 5643 5654 5664 5672 5681 5688 5697 5701 5705 5726 5731 5739 5743 5750 5757 5767 5774 5778 5779 5782 5789 5794 5795 5799 5809 5813 5817 5822 5825
5469 5488 5500 5511 5520 5528 5544 5556 5559 5569 5575 5585 5593 5601 5612 5624 5636 5645 5653 5666 5673 5680 5685 5692 5718 5718 5721 5728 5733 5741 5748 5757 5766 5769 5771 5773 5778 5787 5790 5793 5802 5806 5810 5814 5818
5463 5478 5490 5499 5509 5523 5535 5544 5551 5560 5565 5573 5581 5592 5603 5615 5627 5635 5644 5654 5660 5672 5684 5687 5708 5703 5709 5715 5725 5733 5741 5749 5757 5761 5764 5766 5765 5777 5783 5785 5794 5799 5803 5808 5812
5456 5467 5479 5491 5505 5516 5530 5535 5543 5549 5551 5562 5570 5583 5593 5604 5621 5626 5633 5639 5655 5669 5673 5682 5691 5696 5699 5717 5720 5727 5735 5740 5746 5751 5754 5754 5754 5771 5777 5780 5790 5795 5798 5802 5804
5443 5456 5470 5480 5493 5509 5517 5525 5532 5538 5543 5554 5564 5574 5586 5598 5607 5615 5624 5634 5643 5649 5658 5667 5676 5683 5695 5705 5710 5716 5723 5729 5735 5739 5731 5751 5751 5756 5772 5780 5786 5789 5791 5795 5796
5434 5450 5464 5475 5488 5500 5507 5515 5522 5528 5543 5551 5561 5574 5587 5594 5601 5609 5617 5625 5632 5637 5649 5665 5670 5680 5686 5692 5699 5706 5712 5718 5721 5720 5734 5743 5742 5749 5768 5775 5779 5781 5785 5789 5791
5427 5446 5456 5470 5482 5489 5498 5507 5514 5530 5539 5549 5560 5569 5578 5586 5593 5603 5607 5614 5626 5637 5648 5649 5655 5666 5677 5684 5692 5702 5706 5705 5705 5716 5731 5725 5733 5740 5758 5770 5773 5777 5780 5785 5790
5426 5434 5448 5464 5473 5482 5492 5499 5511 5525 5538 5547 5554 5561 5569 5577 5586 5593 5601 5613 5620 5630 5638 5646 5653 5661 5672 5680 5684 5689 5687 5706 5700 5708 5713 5714 5732 5736 5747 5764 5769 5773 5775 5780 5784
5414 5430 5446 5460 5469 5478 5487 5501 5513 5524 5534 5539 5548 5557 5565 5572 5579 5587 5595 5610 5616 5625 5635 5639 5646 5654 5664 5665 5669 5675 5692 5687 5689 5696 5702 5710 5718 5729 5740 5758 5760 5763 5768 5772 5775
5416 5429 5442 5456 5465 5472 5483 5498 5508 5519 5527 5534 5542 5551 5558 5564 5572 5580 5591 5602 5609 5621 5624 5632 5637 5646 5647 5644 5662 5670 5670 5676 5685 5688 5696 5704 5707 5727 5731 5744 5752 5756 5760 5763 5767
5412 5425 5437 5449 5458 5470 5483 5495 5505 5512 5519 5528 5537 5545 5552 5557 5563 5571 5583 5595 5603 5605 5608 5627 5628 5631 5637 5650 5656 5660 5664 5671 5670 5682 5688 5689 5696 5714 5721 5731 5744 5750 5750 5755 5757
5409 5426 5438 5448 5457 5470 5481 5491 5500 5507 5514 5523 5532 5539 5547 5552 5559 5564 5574 5584 5590 5595 5607 5619 5613 5621 5627 5630 5635 5638 5652 5661 5668 5671 5672 5683 5686 5707 5716 5721 5733 5739 5743 5746 5749
5417 5423 5435 5448 5462 5474 5483 5490 5497 5504 5511 5518 5525 5532 5540 5547 5552 5559 5569 5573 5578 5588 5600 5596 5603 5606 5614 5626 5632 5633 5645 5652 5656 5658 5673 5671 5689 5696 5703 5707 5717 5727 5731 5735 5740
5419 5429 5444 5453 5464 5473 5480 5487 5493 5500 5507 5514 5520 5528 5534 5540 5545 5555 5561 5565 5569 5578 5582 5582 5587 5596 5606 5613 5617 5622 5628 5636 5639 5651 5653 5672 5673 5687 5691 5696 5700 5711 5719 5723 5728
5423 5433 5445 5455 5461 5469 5476 5482 5489 5495 5502 5508 5514 5522 5526 5533 5544 5544 5546 5548 5556 5564 5568 5576 5580 5587 5591 5601 5603 5605 5611 5618 5626 5639 5643 5653 5656 5674 5677 5682 5689 5697 5705 5711 5715
5427 5437 5447 5454 5460 5467 5474 5481 5487 5492 5498 5503 5510 5514 5519 5524 5526 5530 5534 5540 5548 5553 5560 5565 5573 5576 5578 5590 5589 5583 5596 5606 5616 5628 5637 5637 5656 5672 5661 5667 5675 5682 5689 5697 5700
Wind_Speed
74 74 76 77 76 76 73 72 73 71 70 70 67 65 63 58 45 59 52 58 59 59 58 53 51 50 51 41 37 39 42 43 38 31 31 32 27 27 23 23 19 15 12 10 11
70 73 73 74 76 76 77 77 78 78 75 74 72 68 65 61 53 45 51 54 57 62 60 57 54 54 51 46 41 38 39 40 39 34 34 35 31 31 25 24 21 17 14 12 12
64 67 72 72 74 73 75 76 77 79 78 77 76 72 68 66 68 57 39 52 52 57 61 60 59 54 53 49 45 40 37 40 41 42 39 39 35 32 29 27 24 18 16 14 12
58 61 64 68 68 70 71 72 75 78 80 80 78 76 73 67 71 66 51 48 48 47 55 65 60 61 54 51 48 44 38 41 41 42 44 40 37 34 30 31 24 21 18 16 15
57 56 58 61 61 64 67 67 70 73 76 80 79 79 78 72 66 74 74 56 53 52 44 52 65 62 58 55 49 47 40 38 35 35 40 40 37 36 31 31 26 23 22 19 18
57 56 56 57 58 61 64 64 67 71 73 76 78 79 81 78 71 72 63 68 62 42 53 41 51 62 59 54 51 45 45 33 30 28 31 33 34 38 34 31 29 26 24 21 20
58 57 56 58 58 59 63 64 66 69 70 74 76 80 83 78 75 74 63 58 69 75 48 59 47 52 56 56 51 45 44 43 28 29 29 30 36 35 32 35 31 29 28 23 23
66 61 59 58 59 57 62 64 66 66 69 72 76 78 81 79 74 71 65 61 49 53 48 54 64 52 56 57 56 51 46 49 35 30 29 34 31 29 35 36 32 32 30 26 25
54 63 58 58 60 59 60 64 65 66 69 72 73 77 82 81 72 67 69 63 47 44 51 56 59 64 60 58 57 55 52 49 40 36 34 38 30 29 37 36 32 33 31 30 28
72 55 61 56 59 59 58 64 66 63 65 69 71 74 80 77 72 64 70 70 71 66 48 42 40 59 65 62 60 56 54 50 42 36 38 38 28 29 35 38 34 35 34 32 28
64 67 65 61 53 59 61 65 69 70 68 65 66 70 74 76 72 66 69 72 71 73 77 56 45 47 54 57 56 54 53 51 41 38 42 41 34 31 39 35 39 36 35 31 28
76 60 67 61 59 58 63 59 60 62 65 67 68 67 70 70 69 65 70 76 81 57 69 62 55 45 46 50 54 55 54 49 43 42 44 43 38 33 37 37 35 32 33 32 32
69 75 60 62 64 62 58 57 58 58 60 60 64 66 68 68 66 64 69 73 81 91 77 71 53 56 57 57 58 56 56 50 45 43 47 45 44 38 37 38 34 33 35 33 33
73 71 69 68 67 63 59 57 57 56 58 61 61 60 64 64 64 63 62 67 72 75 70 67 59 63 57 56 59 60 54 48 44 46 49 48 52 44 40 37 35 28 30 31 33
66 62 67 67 62 62 58 59 57 56 59 57 59 59 62 62 60 60 59 62 62 62 58 56 59 64 70 58 55 60 56 51 47 48 51 53 58 46 42 40 30 24 28 31 36
81 57 69 65 62 59 58 59 59 56 62 57 56 60 60 61 60 57 55 57 56 62 66 61 60 55 58 62 60 58 57 57 50 50 61 52 56 56 43 37 29 27 28 31 34
62 67 68 64 59 59 59 58 57 61 59 58 57 56 56 58 58 53 56 55 58 61 64 56 57 50 51 52 55 54 55 57 58 58 61 55 58 58 42 36 35 32 31 30 30
66 64 68 64 60 62 61 59 61 60 60 55 53 56 55 56 57 54 51 57 53 55 53 60 61 53 54 55 52 45 47 58 65 61 60 64 63 63 49 34 34 36 32 31 29
61 69 72 64 62 62 61 63 63 59 55 55 52 54 57 55 55 55 54 50 50 49 51 50 54 59 50 53 51 50 52 44 58 58 62 66 64 63 55 40 36 33 35 34 32
66 68 65 59 58 57 58 57 57 57 54 55 54 52 51 54 55 54 53 52 49 48 48 51 51 52 56 63 56 53 45 51 56 59 61 61 66 65 60 41 37 38 37 34 36
64 65 59 56 56 57 56 56 56 56 56 55 54 52 52 47 49 52 52 49 50 45 49 49 54 51 56 70 62 58 56 51 51 59 59 59 64 58 59 49 42 36 35 36 36
73 66 59 57 59 55 52 54 54 57 56 55 53 50 50 41 44 42 49 46 47 51 56 50 53 56 56 57 62 66 63 59 61 58 57 60 65 59 58 50 41 40 38 36 35
69 63 59 57 56 50 50 51 53 55 55 54 53 50 41 41 42 50 48 43 44 43 44 49 62 63 61 66 70 72 70 68 65 64 64 59 58 51 53 53 42 41 40 37 43
60 63 63 58 49 41 38 39 49 52 53 52 53 52 49 45 43 42 45 49 45 44 45 50 53 63 63 66 65 70 65 67 66 68 60 58 51 48 50 53 49 45 43 43 40
53 55 50 44 37 30 31 32 34 45 51 52 52 53 52 51 45 41 42 43 44 45 50 54 53 54 59 66 75 77 72 70 74 66 67 56 57 50 50 52 52 48 45 45 45
40 43 36 29 28 28 27 32 32 34 41 46 51 48 49 54 55 49 51 49 47 48 50 53 53 53 61 65 74 81 81 79 78 75 68 69 63 53 56 58 56 50 48 46 45
38 36 32 26 26 31 29 27 28 31 32 32 31 35 45 51 54 61 60 56 52 50 50 54 52 56 60 63 76 83 79 79 75 71 67 67 54 44 51 54 56 54 52 48 49
Wind_Direction
242 240 237 236 235 234 234 233 233 236 240 237 237 236 235 235 246 245 236 237 240 243 244 245 247 244 239 232 227 230 235 236 234 231 239 239 247 253 252 252 242 239 242 251 267
240 240 239 236 234 232 231 229 228 232 234 234 236 235 231 231 229 231 223 231 236 239 242 243 245 246 245 241 225 229 235 239 240 240 240 242 243 247 247 249 243 235 230 240 254
239 238 238 237 237 235 232 229 230 229 229 233 232 233 231 230 231 235 209 227 233 235 239 241 243 246 247 247 244 231 230 236 236 237 241 242 242 242 238 244 240 234 231 235 240
237 236 237 235 236 236 235 232 230 229 230 231 230 231 231 228 228 218 219 240 218 235 240 239 240 243 245 247 245 244 234 228 224 228 234 236 236 235 237 239 239 238 239 235 234
236 235 236 236 234 233 233 231 230 229 229 230 229 230 232 227 226 226 233 228 220 221 230 233 233 239 242 245 243 247 238 229 232 224 225 230 232 234 234 238 236 239 239 234 237
235 234 234 233 232 231 231 228 226 227 226 228 229 229 231 231 224 229 233 235 240 222 226 232 225 231 235 241 244 245 246 235 229 223 226 229 233 235 236 239 237 234 238 233 235
235 234 233 231 230 230 227 225 222 223 226 226 229 229 229 229 227 228 229 231 239 244 240 232 227 225 231 237 240 242 246 242 227 225 228 236 234 235 237 238 235 235 235 230 231
232 231 229 229 227 227 225 224 222 223 226 228 229 229 227 228 229 226 223 226 235 235 245 249 228 230 233 235 236 239 241 244 235 225 232 239 236 238 236 236 234 237 234 227 225
234 225 224 225 225 225 223 224 223 224 226 228 230 230 228 226 227 223 220 213 215 230 241 230 225 231 232 233 236 236 240 240 233 231 235 240 237 239 235 239 235 235 234 226 222
228 227 222 219 221 223 222 222 221 222 224 227 229 229 226 225 228 222 221 218 225 218 219 205 216 226 230 231 238 240 243 242 239 235 241 243 240 236 242 241 235 233 231 230 224
212 226 229 219 215 218 220 220 221 221 223 229 232 230 225 226 226 219 219 216 216 223 222 213 223 224 228 232 234 238 240 242 240 237 238 241 233 232 241 238 231 233 232 230 229
221 218 216 215 217 217 220 223 226 230 229 231 231 229 225 225 226 220 218 217 214 219 221 232 243 222 225 230 230 232 236 238 237 237 241 243 238 233 239 242 234 234 236 239 230
205 213 222 225 218 217 218 219 222 223 226 228 231 230 224 223 220 221 220 221 221 226 235 246 243 250 243 236 233 232 234 235 236 235 239 241 239 232 239 238 236 235 234 239 233
206 215 217 214 214 217 216 215 219 221 224 225 224 224 224 221 217 219 219 223 223 230 234 233 229 227 222 228 231 234 233 232 232 236 238 242 240 232 231 240 237 232 235 238 232
192 204 210 218 217 213 214 213 218 218 220 221 219 219 219 220 216 215 219 221 220 223 220 229 229 226 228 230 231 234 233 233 229 233 237 237 244 222 235 238 244 243 239 239 235
194 201 202 208 210 209 211 210 213 212 219 219 220 218 219 217 216 217 219 218 215 214 213 214 222 222 227 228 228 230 232 232 232 229 234 235 242 231 226 240 240 241 237 235 234
181 200 205 208 209 206 209 207 206 213 218 218 219 218 219 219 217 217 218 217 215 215 216 214 218 221 221 222 223 226 233 235 232 231 236 235 239 233 228 233 239 239 237 236 238
197 197 202 207 207 206 206 206 213 218 216 218 220 219 220 219 217 214 217 217 213 216 216 216 213 216 220 216 222 226 235 233 230 231 238 239 235 233 232 231 241 240 238 238 243
181 194 201 204 203 206 209 210 215 215 217 219 219 221 221 218 218 219 216 219 216 214 215 221 221 221 225 222 219 223 232 235 235 233 234 240 239 238 240 239 242 245 243 242 244
185 190 197 199 200 206 209 215 218 218 217 217 219 221 223 222 221 219 217 217 216 218 219 221 224 224 222 222 225 226 226 232 234 233 234 238 242 237 241 240 239 242 245 243 243
187 186 192 196 198 202 211 214 215 219 218 216 218 219 221 221 223 221 219 216 220 221 222 223 230 231 226 225 228 223 224 227 233 238 238 242 244 241 245 240 237 243 246 245 246
184 183 184 188 190 201 208 214 216 216 217 218 216 218 218 220 220 220 217 217 216 219 219 223 218 232 236 236 231 230 234 239 241 241 241 242 246 243 245 244 240 240 243 243 244
179 182 184 194 197 204 208 215 218 218 217 217 216 214 210 217 217 217 212 215 216 218 219 223 225 229 230 235 233 234 233 239 243 238 241 246 246 246 249 251 240 238 239 243 241
183 182 186 193 197 206 214 226 225 221 219 220 218 214 212 208 218 216 220 214 215 219 216 223 226 232 231 235 240 244 243 243 241 240 242 247 249 248 243 246 245 236 237 240 243
184 187 193 191 198 201 210 222 223 223 224 222 220 219 219 210 205 211 215 218 217 221 221 222 228 232 234 237 237 238 242 241 238 238 241 250 249 241 241 241 241 238 236 236 240
188 191 195 196 193 196 211 214 214 216 220 223 227 229 229 225 217 208 213 216 216 218 227 224 235 236 237 235 235 239 240 240 239 241 246 247 246 247 245 240 240 240 235 233 237
187 193 197 203 205 206 209 208 210 214 220 225 232 237 235 231 230 225 223 221 223 221 225 220 226 240 241 238 235 230 236 240 242 245 245 243 245 240 247 239 235 238 241 233 233